Home > Weather > Thessaloniki > Past weeks

Flag for Greece Past Weather in Thessaloniki, Greece — Yesterday and Last 2 Weeks

Now
82 °F

Passing clouds.


Feels Like: 81 °F
Forecast: 67 / 86 °F
Wind: 10 mph from West

Location: Thessaloniki Airport

Current Time: Aug 27, 2016 at 1:18:26 PM

Latest Report: Aug 27, 2016 at 12:50 PM


Visibility: N/A

Pressure: 30.09 "Hg

Humidity: 32%

Dew Point: 50 °F

Location of ThessalonikiLocation

Past Weather in Thessaloniki — Graph

°F

Thessaloniki Temperature Yesterday

Maximum temperature yesterday: 86 °F (at 3:20 PM)
Minimum temperature yesterday: 72 °F (at 11:50 PM)
Average temperature yesterday: 79 °F

High & Low Weather Summary for the Past Weeks

 TemperatureHumidityPressure
High97 °F (Aug 22, 4:20 PM)83% (Aug 20, 5:50 AM)30.21 "Hg (Aug 20, 5:50 AM)
Low61 °F (Aug 15, 4:50 AM)20% (Aug 22, 4:20 PM)29.77 "Hg (Aug 18, 3:50 PM)
Average78 °F51%29.97 "Hg
* Reported Aug 12 11:20 AM — Aug 27 11:50 AM, Thessaloniki, Weather by CustomWeather, © 2016

Note: Actual official high and low records may vary slightly from our data, if they occured in-between our weather recording intervals... More about our weather records

Advertising

Thessaloniki Weather History for the Previous 24 Hours

Scroll right to see more
 ConditionsComfort  
Time TempWeatherWind HumidityBarometerVisibility
11:50 AM
Sat, Aug 27
81 °FPassing clouds.8 mph34%30.12 "HgN/A
11:20 AM81 °FPassing clouds.7 mph34%30.12 "HgN/A
10:50 AM81 °FPassing clouds.7 mph32%30.15 "HgN/A
10:20 AM79 °FPassing clouds.5 mph37%30.15 "HgN/A
9:50 AM77 °FPassing clouds.3 mph47%30.15 "HgN/A
9:20 AM77 °FPassing clouds.3 mph39%30.12 "HgN/A
8:50 AM75 °FSunny.3 mph39%30.12 "Hg10 mi
8:20 AM72 °FSunny.1 mph47%30.12 "Hg10 mi
7:50 AM72 °FSunny.1 mph44%30.12 "Hg10 mi
6:50 AM73 °FClear.3 mph36%30.12 "Hg10 mi
6:20 AM73 °FClear.5 mph36%30.12 "Hg10 mi
5:50 AM72 °FClear.1 mph41%30.09 "Hg10 mi
5:20 AM73 °FClear.2 mph38%30.09 "Hg10 mi
4:50 AM73 °FClear.2 mph38%30.09 "Hg10 mi
4:20 AM75 °FClear.7 mph34%30.09 "Hg10 mi
3:50 AM75 °FClear.7 mph36%30.09 "Hg10 mi
3:20 AM75 °FClear.7 mph34%30.09 "Hg10 mi
2:50 AM73 °FClear.6 mph36%30.09 "Hg10 mi
2:20 AM73 °FClear.7 mph36%30.09 "Hg10 mi
1:50 AM73 °FClear.8 mph36%30.09 "Hg10 mi
1:20 AM73 °FClear.8 mph36%30.09 "Hg10 mi
12:50 AM70 °FClear.6 mph50%30.09 "Hg10 mi
12:20 AM68 °FClear.3 mph56%30.09 "Hg10 mi
11:50 PM
Fri, Aug 26
72 °FClear.2 mph50%30.07 "Hg10 mi
11:20 PM73 °FClear.3 mph44%30.07 "Hg10 mi
10:50 PM75 °FClear.6 mph41%30.07 "Hg10 mi
10:20 PM75 °FClear.7 mph41%30.07 "Hg10 mi
9:50 PM77 °FClear.6 mph39%30.07 "Hg10 mi
9:20 PM75 °FClear.6 mph41%30.04 "Hg10 mi
8:50 PM79 °FSunny.7 mph39%30.04 "Hg10 mi
8:20 PM79 °FSunny.8 mph39%30.04 "Hg10 mi
7:50 PM81 °FSunny.9 mph34%30.04 "Hg10 mi
7:20 PM82 °FPassing clouds.10 mph28%30.04 "HgN/A
6:50 PM84 °FPassing clouds.9 mph27%30.01 "HgN/A
6:20 PM86 °FPassing clouds.8 mph25%30.01 "HgN/A
5:50 PM86 °FPassing clouds.7 mph25%30.01 "HgN/A
5:20 PM86 °FPassing clouds.7 mph25%30.04 "HgN/A
4:50 PM86 °FPassing clouds.8 mph27%30.04 "HgN/A
4:20 PM86 °FPassing clouds.9 mph29%30.04 "HgN/A
3:50 PM86 °FPassing clouds.12 mph29%30.04 "HgN/A
3:20 PM86 °FPassing clouds.12 mph29%30.04 "HgN/A
2:50 PM84 °FPassing clouds.12 mph35%30.04 "HgN/A
2:20 PM84 °FPassing clouds.13 mph40%30.04 "HgN/A
1:50 PM84 °FPassing clouds.14 mph35%30.04 "HgN/A
1:20 PM84 °FPassing clouds.12 mph35%30.07 "HgN/A
Weather by CustomWeather, © 2016

See weather overviewHow to use our weather pages